Погода в Ситниково

Россия / Омская область     55°39′50″N   74°47′38″E
темп.,
°C
ветер,
м/с
пор.,
м/с
влажн.,
%
обл.,
%
осадки,
мм/ч
давл.,
гПа
погр.,
м
15 мая, сб
сб1500:00+13зюз465435 0.0 102379
03:00+12юз4126011 0.0 1022195
06:00+14зюз5135991 0.0 1021255
09:00+21зюз6124114 0.0 1020528
12:00+26з79375 0.0 1019982
15:00+29зсз8102956 0.0 10173029
18:00+28з693258 0.0 10162266
21:00+19в35645 0.0 101667
16 мая, вс
вс1600:00+17юз49615 0.0 1016168
03:00+15зсз487173 0.0 1015129
06:00+15з367491 0.0 1014111
09:00+21зсз695490 0.0 1014530
12:00+25зсз794440 0.0 10141264
15:00+27зсз711389 0.0 10132635
18:00+19ссз2478100 1.4 1013107
21:00+17ссз379056 0.5 1015195
17 мая, пн
пн1700:00+14ссв599527 0.6 1017323
03:00+11ссв369731 0.0 1018170
06:00+11в23925 0.0 1019102
09:00+17юз33641 0.0 1019525
12:00+23зюз56420 0.0 1017940
15:00+28з79375 0.0 10151908
18:00+29з69309 0.0 10132871
21:00+22зюз4104714 0.0 1012138
18 мая, вт
вт1800:00+21ссз7145198 0.0 1012385
03:00+15ююз0077100 0.4 101111
06:00+15сз4879100 0.4 1011179
09:00+20сз69608 0.0 1011824
12:00+23сз794593 0.0 10111533
15:00+25сз693794 0.0 10102862
18:00+18з7107561 1.0 1011335
21:00+14св35935 1.6 1011143
19 мая, ср
ср1900:00+13ссв37949 1.7 1012162
03:00+11св379199 0.0 1013288
06:00+11ссв4889100 0.1 1015580
09:00+10ссв697877 0.1 1017695
12:00+12ссв6760100 0.1 10181355
15:00+17с583894 0.0 10182360
18:00+16с684448 0.0 10191672
21:00+12с375949 0.0 1021122